This is the latest recevied weather packets stored in our database for station/object IZ3MEZ-13. If no packets are shown the sender has not sent any weather packets the latest 10 day(s).
| Time | Temp. | Humidity | Pressure | Rain* | Wind** | Luminosity | Snow |
|---|---|---|---|---|---|---|---|
| 1777822519 | 24.44° C | 44% | 1018.1 hPa | 0 mm | - | 153 W/m² | - |
| 1777821920 | 25° C | 42% | 1018.1 hPa | 0 mm | - | 126 W/m² | - |
| 1777821320 | 26.11° C | 41% | 1018.2 hPa | 0 mm | - | 150 W/m² | - |
| 1777820717 | 26.67° C | 40% | 1018.2 hPa | 0 mm | - | 175 W/m² | - |
| 1777820122 | 26.67° C | 39% | 1018.3 hPa | 0 mm | - | 200 W/m² | - |
| 1777819519 | 27.78° C | 40% | 1018.2 hPa | 0 mm | - | 239 W/m² | - |
| 1777818917 | 28.33° C | 37% | 1018.4 hPa | 0 mm | - | 311 W/m² | - |
| 1777818324 | 28.89° C | 38% | 1018.5 hPa | 0 mm | - | 365 W/m² | - |
| 1777817719 | 28.89° C | 37% | 1018.6 hPa | 0 mm | - | 340 W/m² | - |
| 1777817120 | 28.89° C | 37% | 1018.6 hPa | 0 mm | - | 328 W/m² | - |
| 1777816518 | 30° C | 36% | 1018.5 hPa | 0 mm | - | 405 W/m² | - |
| 1777815931 | 30° C | 36% | 1018.6 hPa | 0 mm | - | 485 W/m² | - |
| 1777815320 | 30° C | 36% | 1018.7 hPa | 0 mm | - | 477 W/m² | - |
| 1777814717 | 30° C | 36% | 1018.9 hPa | 0 mm | - | 570 W/m² | - |
| 1777814115 | 30° C | 37% | 1019 hPa | 0 mm | - | 660 W/m² | - |
| 1777813522 | 28.89° C | 37% | 1019 hPa | 0 mm | - | 720 W/m² | - |
| 1777812929 | 28.89° C | 38% | 1019.2 hPa | 0 mm | - | 648 W/m² | - |
| 1777812317 | 28.89° C | 39% | 1019.2 hPa | 0 mm | - | 720 W/m² | - |
| 1777811718 | 28.89° C | 38% | 1019.3 hPa | 0 mm | - | 736 W/m² | - |
| 1777811121 | 28.89° C | 39% | 1019.3 hPa | 0 mm | - | 708 W/m² | - |
| 1777810532 | 28.33° C | 39% | 1019.3 hPa | 0 mm | - | 685 W/m² | - |
| 1777809924 | 28.33° C | 37% | 1019.4 hPa | 0 mm | - | 709 W/m² | - |
| 1777809317 | 28.33° C | 39% | 1019.6 hPa | 0 mm | - | 735 W/m² | - |
| 1777808720 | 27.78° C | 39% | 1019.4 hPa | 0 mm | - | 730 W/m² | - |
| 1777808120 | 28.33° C | 34% | 1019.4 hPa | 0 mm | - | 764 W/m² | - |
* Rain latest hour (hover to see other rain measurements)
** Current wind speed in m/s (hover to see current wind gust speed)